Regional Weather Roundup
Issued by NWS

Home | Current Version | Previous Version | Text Only | Print | Product List | Glossary Off
Versions: 1 2 3 4 5 6 7 8 9 10 11 12 13 14 15 16 17 18 19 20 21 22 23 24 25 26 27 28 29 30 31 32 33 34 35 36 37 38 39 40 41 42 43 44 45 46 47 48 49 50

000
ASUS44 KMEG 240000
RWRTN
TENNESSEE HOURLY STATE WEATHER ROUNDUP
NATIONAL WEATHER SERVICE MEMPHIS TN
700 PM CDT SUN JUL 23 2017

TNZ002-004-019-021-049-052-054-088>092-240100-
WEST TENNESSEE

CITY           SKY/WX    TMP DP  RH WIND       PRES   REMARKS
MEMPHIS INTL   CLOUDY    87  76  69 W5        29.82F HX  97
JACKSON        CLOUDY    80  75  84 SW10G20   29.87R THUNDER
$$

TNZ008-025-027-028-033-062-065-066-240100-
NORTH MIDDLE TENNESSEE

CITY           SKY/WX    TMP DP  RH WIND       PRES   REMARKS
NASHVILLE      PTSUNNY   82  66  58 NW9       29.85R
CLARKSVILLE    SUNNY     87  72  60 NW8       29.84R HX  93
SMYRNA         PTSUNNY   89  74  60 NW16      29.85R HX  98
CROSSVILLE     PTCLDY    80  72  76 SW5       29.91F
$$

TNZ061-075-076-078-094-096-097-240100-
SOUTH MIDDLE TENNESSEE

CITY           SKY/WX    TMP DP  RH WIND       PRES   REMARKS
$$

TNZ017-018-042-046-047-240100-
NORTHEAST TENNESSEE

CITY           SKY/WX    TMP DP  RH WIND       PRES   REMARKS
TRI CITIES     CLOUDY    85  72  65 S7        29.85F HX  91
$$

TNZ012-013-036-069-073-074-240100-
CENTRAL EAST TENNESSEE

CITY           SKY/WX    TMP DP  RH WIND       PRES   REMARKS
KNOXVILLE      CLOUDY    84  70  62 S17       29.84F
OAK RIDGE      MOCLDY    85  72  65 VRB5      29.85F HX  91
GATLINBURG     CLEAR     88  70  55 SW6       29.84F HX  92
$$

TNZ083-085-099-240100-
SOUTHEAST TENNESSEE

CITY           SKY/WX    TMP DP  RH WIND       PRES   REMARKS
CHATTANOOGA    CLOUDY    85  74  69 SW7       29.87S HX  92
$$

SKY/WX REPORTED AS FAIR MEANS FEW OR NO CLOUDS BELOW
12 THOUSAND FEET.





USA.gov is the U.S. government's official web portal to all federal, state and local government web resources and services.